| time (UTC) | temp F | wind direction | speed knots | gust knots | rain 1hr in | rain 24hr in | rain mn in | humidity % | barometer mb |
| 20260509121514 | 60 | 248 | 0.0 | 0.0 | 0.00 | 0.00 | 0.00 | 95 | 1013.4 |
| 20260509120009 | 59 | 248 | 0.0 | 0.0 | 0.00 | 0.00 | 0.00 | 95 | 1013.7 |
| 20260509114517 | 59 | 248 | 0.0 | 0.0 | 0.00 | 0.00 | 0.00 | 94 | 1014.0 |
| 20260509113004 | 58 | 248 | 0.0 | 0.0 | 0.00 | 0.00 | 0.00 | 94 | 1013.9 |
| 20260509111504 | 58 | 248 | 0.0 | 0.0 | 0.00 | 0.00 | 0.00 | 94 | 1013.9 |
| 20260509104559 | 58 | 196 | 0.0 | 0.0 | 0.00 | 0.00 | 0.00 | 94 | 1013.6 |
| 20260509103058 | 58 | 196 | 0.0 | 0.0 | 0.00 | 0.00 | 0.00 | 93 | 1013.4 |
| 20260509101558 | 58 | 196 | 0.0 | 0.0 | 0.00 | 0.00 | 0.00 | 93 | 1013.3 |
| 20260509100058 | 58 | 196 | 0.0 | 0.0 | 0.00 | 0.00 | 0.00 | 93 | 1012.9 |
| 20260509094558 | 58 | 196 | 0.0 | 0.0 | 0.00 | 0.00 | 0.00 | 93 | 1012.7 |
| 20260509093057 | 58 | 196 | 0.0 | 0.0 | 0.00 | 0.00 | 0.00 | 93 | 1012.5 |
| 20260509091559 | 58 | 196 | 0.0 | 0.0 | 0.00 | 0.00 | 0.00 | 93 | 1012.5 |
| 20260509090106 | 58 | 196 | 0.0 | 0.0 | 0.00 | 0.00 | 0.00 | 93 | 1012.6 |
| 20260509084553 | 58 | 196 | 0.0 | 0.0 | 0.00 | 0.00 | 0.00 | 93 | 1012.8 |
| 20260509083055 | 58 | 196 | 0.0 | 0.0 | 0.00 | 0.00 | 0.00 | 92 | 1012.8 |
| 20260509081551 | 58 | 196 | 0.0 | 0.0 | 0.00 | 0.00 | 0.00 | 92 | 1012.9 |
| 20260509080106 | 58 | 196 | 0.0 | 0.0 | 0.00 | 0.00 | 0.00 | 92 | 1013.0 |
| 20260509074551 | 58 | 196 | 0.0 | 0.0 | 0.00 | 0.00 | 0.00 | 92 | 1013.1 |
| 20260509073053 | 58 | 196 | 0.0 | 0.0 | 0.00 | 0.00 | 0.00 | 91 | 1013.3 |
| 20260509071546 | 58 | 196 | 0.0 | 0.0 | 0.00 | 0.00 | 0.00 | 91 | 1013.3 |
| 20260509070050 | 58 | 196 | 0.0 | 0.0 | 0.00 | 0.00 | 0.00 | 91 | 1013.8 |
| 20260509064544 | 58 | 196 | 0.0 | 0.0 | 0.00 | 0.00 | 0.00 | 90 | 1013.7 |
| 20260509063048 | 58 | 196 | 0.0 | 0.0 | 0.00 | 0.00 | 0.00 | 90 | 1013.6 |
| 20260509061542 | 58 | 196 | 0.0 | 0.0 | 0.00 | 0.00 | 0.00 | 90 | 1013.7 |
| 20260509060039 | 58 | 196 | 0.0 | 0.0 | 0.00 | 0.00 | 0.00 | 90 | 1014.1 |
| 20260509054537 | 58 | 196 | 0.0 | 0.0 | 0.00 | 0.00 | 0.00 | 90 | 1014.5 |
| 20260509053042 | 58 | 196 | 0.0 | 0.0 | 0.00 | 0.00 | 0.00 | 90 | 1014.7 |
| 20260509051535 | 58 | 196 | 0.0 | 0.0 | 0.00 | 0.00 | 0.00 | 89 | 1015.1 |
| 20260509050048 | 58 | 196 | 0.0 | 0.0 | 0.00 | 0.00 | 0.00 | 89 | 1015.2 |
| 20260509044535 | 58 | 196 | 0.0 | 0.0 | 0.00 | 0.00 | 0.00 | 88 | 1015.3 |
| 20260509043040 | 58 | 196 | 0.0 | 0.0 | 0.00 | 0.00 | 0.00 | 88 | 1015.4 |
| 20260509041529 | 58 | 196 | 0.0 | 0.0 | 0.00 | 0.00 | 0.00 | 87 | 1015.1 |
| 20260509040025 | 58 | 196 | 0.0 | 0.0 | 0.00 | 0.00 | 0.00 | 86 | 1015.7 |
| 20260509034525 | 59 | 196 | 0.0 | 0.0 | 0.00 | 0.00 | 0.00 | 86 | 1015.5 |
| 20260509033035 | 59 | 196 | 0.0 | 0.0 | 0.00 | 0.00 | 0.00 | 85 | 1015.6 |
| 20260509031529 | 59 | 196 | 0.0 | 0.0 | 0.00 | 0.00 | 0.00 | 85 | 1015.2 |
| 20260509030026 | 59 | 196 | 0.0 | 0.0 | 0.00 | 0.00 | 0.00 | 85 | 1015.3 |
| 20260509024527 | 60 | 196 | 0.0 | 0.0 | 0.00 | 0.00 | 0.00 | 84 | 1015.3 |
| 20260509023025 | 60 | 196 | 0.0 | 0.0 | 0.00 | 0.00 | 0.00 | 83 | 1015.6 |
| 20260509021523 | 60 | 196 | 0.0 | 0.0 | 0.00 | 0.00 | 0.00 | 83 | 1015.4 |
| 20260509020022 | 61 | 196 | 0.0 | 0.0 | 0.00 | 0.00 | 0.00 | 82 | 1015.4 |
| 20260509014523 | 61 | 196 | 0.0 | 0.0 | 0.00 | 0.00 | 0.00 | 81 | 1015.3 |
| 20260509013021 | 62 | 196 | 0.0 | 0.0 | 0.00 | 0.00 | 0.00 | 81 | 1015.3 |
| 20260509011521 | 62 | 196 | 0.0 | 0.0 | 0.00 | 0.00 | 0.00 | 80 | 1015.3 |
| 20260509010019 | 63 | 196 | 0.0 | 0.0 | 0.00 | 0.00 | 0.00 | 79 | 1015.0 |
| 20260509004519 | 64 | 196 | 0.0 | 0.0 | 0.00 | 0.00 | 0.00 | 78 | 1015.1 |
| 20260509003018 | 64 | 196 | 0.0 | 0.0 | 0.00 | 0.00 | 0.00 | 77 | 1014.9 |
| 20260509001518 | 65 | 196 | 0.0 | 0.0 | 0.00 | 0.00 | 0.00 | 77 | 1014.7 |
| 20260509000034 | 65 | 196 | 0.0 | 0.9 | 0.00 | 0.00 | 0.00 | 78 | 1014.5 |
| 20260508234516 | 65 | 196 | 0.0 | 0.0 | 0.00 | 0.00 | 0.00 | 78 | 1014.6 |
| 20260508233016 | 65 | 196 | 0.0 | 0.9 | 0.00 | 0.00 | 0.00 | 77 | 1014.5 |
| 20260508231515 | 66 | 196 | 0.0 | 0.0 | 0.00 | 0.00 | 0.00 | 73 | 1014.4 |
| 20260508230014 | 66 | 196 | 0.0 | 0.0 | 0.00 | 0.00 | 0.00 | 74 | 1014.4 |
| 20260508224537 | 67 | 196 | 0.0 | 0.0 | 0.00 | 0.00 | 0.00 | 72 | 1014.3 |
| 20260508223014 | 68 | 196 | 0.0 | 0.0 | 0.00 | 0.00 | 0.00 | 70 | 1014.4 |
| 20260508221516 | 68 | 196 | 0.0 | 0.0 | 0.00 | 0.00 | 0.00 | 70 | 1014.5 |
| 20260508220012 | 69 | 196 | 0.0 | 0.0 | 0.00 | 0.00 | 0.00 | 66 | 1014.6 |
| 20260508214516 | 70 | 196 | 0.0 | 1.7 | 0.00 | 0.00 | 0.00 | 63 | 1014.5 |
| 20260508213013 | 70 | 196 | 0.0 | 1.7 | 0.00 | 0.00 | 0.00 | 60 | 1014.4 |
| 20260508211516 | 72 | 197 | 0.9 | 1.7 | 0.00 | 0.00 | 0.00 | 58 | 1014.5 |
| 20260508210010 | 72 | 236 | 0.9 | 2.6 | 0.00 | 0.00 | 0.00 | 54 | 1014.4 |
| 20260508204509 | 72 | 232 | 0.0 | 1.7 | 0.00 | 0.00 | 0.00 | 49 | 1014.7 |
| 20260508203012 | 72 | 238 | 0.0 | 2.6 | 0.00 | 0.00 | 0.00 | 54 | 1015.0 |
| 20260508201508 | 73 | 240 | 0.0 | 3.5 | 0.00 | 0.00 | 0.00 | 52 | 1014.9 |
| 20260508200022 | 73 | 236 | 1.7 | 3.5 | 0.00 | 0.00 | 0.00 | 52 | 1014.9 |
| 20260508194511 | 73 | 244 | 0.0 | 1.7 | 0.00 | 0.00 | 0.00 | 49 | 1015.0 |
| 20260508193005 | 72 | 244 | 0.0 | 3.5 | 0.00 | 0.00 | 0.00 | 51 | 1015.1 |
| 20260508191507 | 73 | 240 | 0.0 | 3.5 | 0.00 | 0.00 | 0.00 | 49 | 1015.4 |
| 20260508190003 | 72 | 284 | 0.0 | 2.6 | 0.00 | 0.00 | 0.00 | 50 | 1015.8 |
| 20260508184503 | 72 | 180 | 0.9 | 2.6 | 0.00 | 0.00 | 0.00 | 53 | 1016.2 |
| 20260508183001 | 71 | 199 | 0.9 | 4.3 | 0.00 | 0.00 | 0.00 | 50 | 1016.2 |
| 20260508181613 | 71 | 214 | 0.0 | 7.8 | 0.00 | 0.00 | 0.00 | 50 | 1016.4 |
| 20260508180106 | 71 | 294 | 0.0 | 5.2 | 0.00 | 0.00 | 0.00 | 53 | 1016.6 |
| 20260508174558 | 70 | 348 | 0.9 | 4.3 | 0.00 | 0.00 | 0.00 | 51 | 1016.8 |
| 20260508173106 | 69 | 360 | 0.0 | 2.6 | 0.00 | 0.00 | 0.00 | 53 | 1016.9 |
| 20260508171558 | 69 | 42 | 0.9 | 4.3 | 0.00 | 0.00 | 0.00 | 51 | 1016.9 |
| 20260508170057 | 71 | 48 | 0.0 | 2.6 | 0.00 | 0.00 | 0.00 | 52 | 1017.3 |
| 20260508164556 | 70 | 225 | 0.9 | 2.6 | 0.00 | 0.03 | 0.00 | 50 | 1017.6 |
| 20260508163054 | 69 | 315 | 0.0 | 3.5 | 0.00 | 0.03 | 0.00 | 54 | 1017.9 |
| 20260508161553 | 70 | 331 | 0.9 | 4.3 | 0.00 | 0.03 | 0.00 | 54 | 1018.0 |
| 20260508160049 | 67 | 319 | 0.9 | 4.3 | 0.00 | 0.03 | 0.00 | 53 | 1018.1 |
| 20260508154549 | 67 | 279 | 0.0 | 0.9 | 0.00 | 0.08 | 0.00 | 59 | 1018.3 |
| 20260508153046 | 67 | 252 | 0.0 | 3.5 | 0.00 | 0.08 | 0.00 | 55 | 1018.4 |
| 20260508151547 | 67 | 340 | 0.0 | 3.5 | 0.00 | 0.08 | 0.00 | 56 | 1018.3 |
| 20260508150058 | 66 | 74 | 0.0 | 3.5 | 0.00 | 0.08 | 0.00 | 60 | 1018.2 |
| 20260508144546 | 66 | 306 | 0.0 | 5.2 | 0.00 | 0.55 | 0.00 | 61 | 1018.5 |
| 20260508143047 | 65 | 13 | 0.9 | 5.2 | 0.00 | 0.55 | 0.00 | 56 | 1018.6 |
| 20260508141538 | 65 | 333 | 1.7 | 4.3 | 0.00 | 0.55 | 0.00 | 59 | 1018.5 |
| 20260508140043 | 64 | 330 | 0.0 | 4.3 | 0.00 | 0.55 | 0.00 | 64 | 1018.4 |
| 20260508134534 | 63 | 292 | 0.9 | 6.1 | 0.00 | 0.56 | 0.00 | 65 | 1018.3 |
| 20260508133030 | 61 | 290 | 0.9 | 7.8 | 0.00 | 0.56 | 0.00 | 72 | 1018.2 |
| 20260508131527 | 59 | 360 | 0.9 | 7.0 | 0.00 | 0.56 | 0.00 | 77 | 1018.1 |
| 20260508130027 | 58 | 342 | 0.0 | 3.5 | 0.00 | 0.56 | 0.00 | 84 | 1017.7 |
| 20260508124524 | 56 | 250 | 0.9 | 4.3 | 0.00 | 0.56 | 0.00 | 91 | 1017.7 |
| 20260508123025 | 56 | 49 | 0.0 | 1.7 | 0.00 | 0.56 | 0.00 | 94 | 1017.5 |